Temperature
22 22 22 23 23 24 24 23 23 22 23 22 22 22 22 22 22 22 22 22 22 22 22 22 21 21 21 20 20 19 19 18 18 18 18 17 17 16 16 16 16 15 15 15
22 22 23 24 24 24 24 23 22 22 22 22 21 22 22 22 22 22 22 23 23 22 22 21 21 21 21 20 20 20 19 19 18 18 18 17 17 17 16 16 16 16 15 15
22 23 24 24 24 23 23 22 22 22 22 22 21 21 21 23 23 23 23 23 23 23 22 21 21 21 21 20 20 20 19 19 18 18 18 17 17 17 16 16 16 16 15 15
23 24 24 23 23 23 22 23 23 22 21 21 21 20 20 22 22 23 23 23 23 23 22 22 22 21 21 20 20 20 19 19 18 18 18 17 17 17 17 16 16 16 16 15
22 23 23 23 23 23 22 23 23 22 21 21 22 21 21 21 21 22 23 23 23 23 23 22 22 21 21 20 20 20 19 19 18 18 18 18 17 17 17 17 16 16 16 16
23 24 24 23 23 23 23 22 22 22 21 20 22 21 21 22 22 23 23 23 23 23 23 22 22 21 21 20 20 20 19 19 18 18 18 18 17 17 17 17 16 16 16 16
22 23 23 23 22 23 22 21 20 20 20 20 23 22 23 24 24 24 24 24 23 23 22 22 21 21 20 20 20 19 19 19 18 18 18 18 17 17 17 17 17 16 16 16
21 21 23 23 23 22 22 22 20 19 20 21 23 22 24 25 26 25 25 24 23 23 22 22 21 21 20 20 19 19 19 19 18 18 18 18 17 17 17 17 17 17 16 16
21 21 23 24 24 23 22 22 22 21 21 20 22 24 25 25 25 25 25 24 24 23 22 22 21 20 20 20 19 19 19 19 18 18 18 18 18 17 17 17 17 17 16 16
22 21 23 24 24 23 23 22 22 21 20 20 22 23 23 24 25 25 25 25 24 23 22 21 21 20 20 19 19 19 19 19 18 18 18 18 18 17 17 17 17 17 16 16
23 21 21 22 22 22 22 22 22 22 21 21 21 22 26 25 25 25 25 25 24 23 22 21 21 20 20 19 19 19 19 19 18 18 18 18 18 17 17 17 17 16 16 16
23 21 21 22 23 24 23 23 22 21 21 22 21 22 25 26 26 26 25 25 24 23 22 21 21 20 20 19 19 19 19 19 18 18 18 18 18 17 17 17 17 16 16 16
23 21 19 20 21 22 23 23 23 22 22 21 21 21 25 26 26 26 25 25 24 23 22 21 21 20 20 19 19 19 19 19 19 18 18 18 18 17 17 17 17 16 16 16
23 21 20 19 20 21 22 23 23 22 21 21 22 22 24 25 25 25 25 25 24 23 22 21 21 20 20 19 19 19 19 19 19 18 18 18 18 17 17 17 17 16 16 16
23 21 21 22 22 22 22 23 23 23 22 22 22 23 24 25 25 25 25 24 24 23 22 21 20 20 20 19 19 19 19 19 19 18 18 18 18 17 17 17 16 16 16 15
23 22 22 22 23 23 22 23 23 23 23 23 23 23 25 26 26 26 25 25 24 23 22 21 21 20 20 20 20 19 19 19 19 18 18 18 17 17 17 16 16 16 15 15
23 22 21 21 23 23 22 23 24 24 24 24 23 24 25 26 26 26 25 25 24 23 22 22 21 20 20 20 20 20 19 19 18 18 18 18 17 17 17 16 16 16 15 15
23 22 21 21 21 20 23 25 25 25 25 25 25 25 26 26 26 26 26 25 24 24 23 22 21 21 20 20 19 19 19 19 18 18 18 18 17 17 16 16 16 15 15 15
24 22 21 21 20 21 24 25 26 25 25 25 25 26 26 26 26 26 26 25 25 24 23 22 22 21 21 20 19 19 19 18 18 18 18 18 17 17 16 16 16 15 15 15
23 23 21 21 20 21 23 26 26 26 24 26 26 26 26 26 24 25 26 25 25 24 23 23 22 21 21 20 20 19 19 18 18 18 18 18 17 17 16 16 15 15 15 14
22 22 21 21 21 22 24 25 26 24 24 26 26 26 26 26 25 25 25 25 25 24 23 22 22 21 21 20 20 19 19 18 18 18 18 17 17 17 16 16 15 15 14 14
23 22 22 22 21 22 24 25 25 25 26 26 26 26 25 25 25 25 24 24 24 23 23 22 22 21 21 20 20 19 19 18 18 18 17 17 17 16 16 16 15 15 14 14
24 24 23 23 23 24 25 25 25 25 25 25 25 25 25 25 24 24 23 23 23 22 22 22 21 21 20 20 20 19 19 18 18 17 17 17 16 16 16 16 15 14 14 14
25 25 24 24 24 25 25 24 24 24 24 24 24 24 24 24 24 23 23 22 22 22 21 21 20 20 20 19 19 19 18 18 18 17 17 16 16 16 15 15 15 14 14 14
23 24 24 24 24 24 24 24 24 24 24 24 24 24 24 23 23 23 22 22 21 21 20 20 20 20 19 19 19 18 18 18 17 17 16 16 16 15 15 15 14 14 14 14
24 23 23 23 24 24 24 23 23 23 23 23 23 23 23 23 22 22 22 21 21 20 20 20 19 19 19 18 18 18 18 17 17 16 16 16 15 15 15 14 14 14 14 13
Wind_Speed
7 7 8 9 11 9 6 5 6 6 6 6 7 9 11 10 10 10 10 11 12 10 11 10 8 8 7 7 9 9 7 6 4 2 4 4 3 4 4 5 6 8 9 9
7 9 9 7 7 7 7 5 4 5 6 5 6 7 9 10 11 11 11 11 11 11 11 10 10 9 8 7 8 8 7 7 6 3 4 4 4 4 4 3 5 9 10 10
9 6 8 8 7 7 6 6 5 5 5 5 5 5 8 10 10 10 11 10 11 13 14 12 10 9 8 6 6 8 8 7 6 5 4 4 3 2 3 3 3 6 8 8
6 6 6 7 8 7 6 6 6 7 6 4 6 5 7 10 9 10 11 11 11 11 13 12 11 10 9 7 6 8 8 7 7 5 3 4 3 3 3 3 2 3 6 6
6 7 8 8 8 6 4 2 4 5 5 5 7 5 7 11 12 14 13 12 11 12 12 12 12 10 8 7 6 6 8 8 7 6 4 2 3 2 3 3 3 4 4 5
7 6 6 5 5 4 4 3 3 4 4 7 11 9 6 11 16 17 15 14 13 13 13 12 11 10 8 8 7 6 7 7 6 5 5 4 3 3 4 3 2 2 3 3
8 8 6 5 7 7 8 5 3 5 5 6 9 8 6 11 16 17 17 16 14 12 12 12 12 11 9 9 8 8 8 7 6 5 4 5 4 3 4 3 2 2 3 3
7 8 9 8 9 8 11 10 5 3 4 3 7 7 5 9 12 13 15 15 15 14 13 13 13 11 10 10 9 8 8 7 6 5 3 3 4 2 3 3 3 3 3 4
5 6 10 11 9 8 9 9 7 3 5 3 5 5 5 7 10 12 13 15 16 16 14 14 13 12 11 10 9 8 9 8 6 5 4 3 3 4 4 3 3 4 4 3
4 3 6 9 8 9 8 6 5 4 3 3 6 8 7 12 12 12 13 14 15 16 15 15 13 12 11 10 9 8 8 8 7 6 4 4 3 5 5 4 4 3 4 4
7 4 5 8 10 11 10 10 7 5 5 3 2 2 2 11 12 13 13 13 15 16 15 14 13 12 12 11 10 9 8 8 7 7 5 5 4 5 5 4 3 2 3 3
8 4 6 10 10 10 10 11 9 5 5 5 2 2 4 6 10 11 12 13 14 15 14 14 13 12 12 12 11 10 9 8 7 7 7 6 6 5 5 4 3 1 2 2
5 3 4 5 6 10 11 12 11 8 6 6 4 3 4 4 8 9 11 12 12 14 14 13 13 12 12 11 10 9 10 9 8 7 7 6 6 5 5 5 3 2 2 2
3 5 6 7 5 8 12 13 13 11 7 7 6 5 6 6 7 9 10 11 12 14 15 14 12 12 12 11 11 10 9 9 9 7 6 7 6 5 5 4 3 2 3 3
6 8 10 11 9 8 11 13 14 14 12 10 8 8 6 5 7 9 11 13 13 14 14 15 14 12 12 12 11 11 10 10 10 8 7 6 6 6 5 5 4 3 3 3
10 8 9 11 10 11 11 13 13 15 13 12 11 10 8 6 6 9 11 13 14 14 15 15 15 14 14 13 12 12 11 10 10 9 8 7 6 6 6 5 4 4 3 4
11 10 8 8 9 9 12 14 15 14 14 12 12 9 8 8 5 8 10 12 14 14 14 15 15 15 15 15 14 14 13 11 10 9 8 8 7 7 6 6 5 4 3 4
10 9 4 5 6 8 8 10 10 12 13 13 11 9 8 7 4 6 8 10 12 13 15 15 14 14 14 14 13 13 13 12 11 10 9 9 8 7 6 6 5 4 4 4
9 6 5 4 6 8 7 8 9 9 9 11 12 10 8 8 6 5 8 10 12 13 13 13 14 14 14 15 15 14 14 13 11 11 11 10 9 9 8 7 6 4 4 4
9 7 6 5 5 5 4 3 3 4 6 8 10 9 8 7 5 5 6 8 10 10 11 12 12 13 13 14 14 15 14 13 12 11 11 10 9 9 8 7 5 4 4 4
10 9 9 7 7 5 4 2 2 4 2 1 4 6 5 5 4 3 5 6 8 9 10 11 12 11 12 13 14 14 13 12 11 10 10 10 9 9 8 6 5 5 4 4
10 8 9 8 7 5 3 3 2 1 3 4 3 1 2 2 2 4 6 7 8 9 10 11 10 10 10 12 13 13 12 11 11 11 10 10 9 8 8 7 5 5 5 4
9 6 3 4 3 1 1 1 3 4 4 4 4 3 1 3 4 5 6 7 8 9 10 10 10 10 10 10 11 11 10 13 13 12 10 9 9 7 8 8 6 5 5 4
4 5 4 4 3 2 1 2 3 3 4 4 4 3 2 2 5 6 6 7 7 8 9 9 10 11 10 9 9 10 11 13 13 12 10 9 9 8 7 6 6 5 5 4
2 2 3 4 2 1 0 1 2 2 2 2 2 2 1 3 4 5 6 7 7 7 8 9 10 10 10 10 9 10 11 13 12 11 10 9 8 8 7 6 5 6 5 5
4 3 3 2 2 2 1 3 3 2 2 1 1 1 2 3 4 5 5 6 7 7 8 9 9 10 10 11 10 11 11 11 12 10 10 8 7 7 6 6 5 4 5 8
Wind_Direction
204 220 224 218 217 233 234 215 204 175 176 182 177 168 169 172 178 176 176 176 176 169 153 138 134 131 130 126 121 127 135 121 112 96 96 95 86 78 71 70 45 41 37 34
201 225 236 231 221 231 234 215 189 154 160 172 179 183 180 184 191 181 186 184 176 166 151 145 154 151 143 143 145 136 123 113 103 79 101 104 92 95 92 72 60 52 41 27
220 224 224 226 218 221 223 216 203 164 172 195 184 194 195 198 198 191 190 191 186 172 159 159 162 146 144 155 147 127 119 117 112 96 76 85 86 85 90 86 64 57 54 40
240 239 231 220 219 218 221 216 215 182 177 208 203 203 205 200 199 202 196 193 190 175 162 163 157 148 155 155 143 129 126 122 114 116 93 105 101 94 98 104 112 97 72 57
230 225 223 221 218 219 213 225 231 204 210 238 227 219 211 196 198 203 204 197 184 173 164 162 156 155 151 141 127 118 118 113 111 110 103 80 90 102 97 90 86 93 80 68
243 235 229 221 216 208 178 196 226 228 230 239 231 225 210 196 199 197 199 198 183 174 166 159 150 143 137 129 123 117 114 116 121 132 139 124 102 96 95 91 91 94 101 79
221 221 209 194 200 191 199 191 201 204 212 234 224 224 223 199 196 193 191 190 179 170 163 156 149 149 146 144 144 138 134 134 143 157 154 149 148 137 118 109 100 86 95 86
217 209 200 200 206 198 207 210 213 221 219 229 218 219 214 192 190 188 183 178 171 170 165 157 155 155 152 152 154 151 147 147 155 164 158 137 119 96 90 86 93 83 82 86
232 218 195 200 203 210 213 220 234 270 283 254 230 212 164 179 181 179 175 173 170 168 164 158 157 158 155 155 156 155 152 152 154 156 139 121 122 110 102 89 78 85 88 95
239 238 202 188 198 218 226 216 224 229 254 239 216 209 183 178 178 175 172 170 164 164 164 160 160 159 157 153 154 155 157 155 154 153 146 135 115 101 89 84 72 80 90 88
225 217 204 195 207 208 206 219 224 232 243 271 266 256 229 175 173 174 172 168 163 164 163 159 158 157 153 151 155 161 160 152 152 151 148 141 127 118 115 95 83 67 105 123
214 212 219 214 215 219 219 219 219 227 247 253 251 273 282 177 166 167 168 165 162 160 157 156 156 156 156 158 164 166 160 155 156 155 152 146 134 136 132 126 133 144 95 104
208 205 215 214 218 213 225 223 224 230 251 264 249 229 263 165 150 158 160 161 159 155 153 154 157 159 160 162 165 164 160 156 153 154 150 143 144 146 140 138 135 120 97 85
220 227 217 216 222 216 219 221 221 223 230 253 254 233 220 177 156 155 156 159 160 159 159 159 159 160 161 163 164 162 156 151 151 153 151 147 146 142 133 118 115 98 95 86
220 240 244 248 241 231 229 223 220 224 229 239 257 266 250 205 171 167 164 163 164 165 165 165 166 166 165 165 167 162 154 152 154 156 156 149 141 131 121 112 105 92 91 94
220 240 249 259 242 230 232 227 224 226 232 231 245 260 268 252 188 170 173 169 170 174 173 170 171 171 171 170 169 160 157 156 154 154 152 142 137 130 128 126 120 102 83 77
212 230 255 266 259 241 237 227 222 223 228 229 238 241 242 247 201 176 177 177 179 177 174 175 177 177 175 175 173 166 161 159 158 157 151 145 142 135 138 134 123 118 108 92
216 224 235 262 263 247 248 232 225 222 223 227 235 238 237 247 218 181 173 178 180 178 176 177 178 174 172 173 171 163 158 162 163 160 154 151 146 141 137 134 139 145 136 124
208 218 230 239 251 263 254 240 221 221 226 223 230 230 227 228 221 198 188 185 182 180 178 176 176 173 172 172 168 164 163 166 166 163 158 157 153 151 152 156 160 154 141 135
203 216 229 240 247 256 262 252 200 210 235 222 218 224 220 206 209 214 187 178 173 171 169 168 167 169 170 169 165 166 167 168 169 163 158 155 154 154 157 159 154 141 136 141
203 216 228 239 249 257 266 267 208 214 262 301 202 206 203 204 207 171 143 146 156 152 153 156 162 166 165 163 163 166 168 170 160 149 147 147 149 152 152 148 141 138 139 145
204 210 223 228 236 240 216 221 223 349 10 27 28 96 160 180 161 130 135 134 135 140 146 152 157 157 154 157 162 169 169 154 142 140 142 146 148 153 149 141 145 146 146 155
212 207 215 220 204 143 151 90 57 21 359 12 15 21 83 141 139 124 127 131 137 145 149 150 149 148 151 157 164 167 151 141 140 142 145 148 147 144 145 149 155 156 158 171
228 203 218 230 188 161 100 23 51 27 357 12 14 24 68 113 128 132 139 139 143 149 147 146 148 154 159 159 158 150 142 142 145 150 154 155 155 153 154 158 163 165 172 184
261 243 234 234 235 235 280 22 17 23 19 24 28 28 68 116 132 137 141 143 146 147 147 151 158 162 160 155 153 147 148 150 153 156 160 162 160 159 164 164 168 169 171 172
258 258 245 237 273 274 44 34 21 40 41 44 55 55 81 121 131 127 132 136 144 149 151 156 160 159 159 159 159 154 155 154 157 162 166 164 161 162 164 161 163 164 171 175
Height
1501 1503 1503 1500 1498 1498 1499 1503 1507 1508 1507 1510 1514 1516 1517 1519 1521 1524 1528 1530 1533 1536 1539 1542 1545 1547 1550 1551 1552 1553 1554 1555 1556 1556 1557 1557 1557 1557 1556 1556 1555 1554 1554 1553
1501 1502 1497 1494 1494 1496 1498 1504 1508 1508 1508 1511 1515 1516 1515 1517 1520 1522 1525 1527 1530 1534 1538 1541 1545 1547 1550 1551 1553 1554 1555 1556 1557 1557 1558 1558 1558 1558 1558 1558 1557 1556 1555 1554
1498 1496 1493 1494 1496 1499 1501 1505 1507 1510 1510 1509 1515 1521 1518 1516 1518 1520 1522 1525 1528 1531 1535 1539 1543 1546 1549 1551 1553 1554 1555 1556 1557 1558 1559 1559 1559 1560 1559 1559 1559 1558 1557 1556
1495 1493 1493 1495 1497 1499 1505 1500 1502 1506 1514 1519 1517 1530 1520 1515 1516 1517 1519 1522 1525 1528 1533 1537 1541 1544 1548 1551 1553 1554 1555 1557 1558 1558 1559 1560 1561 1561 1561 1561 1560 1559 1559 1558
1496 1493 1494 1497 1497 1497 1502 1500 1501 1505 1512 1518 1515 1523 1519 1512 1515 1515 1515 1518 1521 1526 1530 1534 1539 1543 1546 1549 1552 1554 1555 1557 1558 1559 1560 1560 1561 1562 1562 1562 1562 1561 1560 1560
1493 1492 1493 1494 1495 1497 1500 1504 1506 1508 1514 1526 1515 1518 1516 1507 1506 1507 1510 1514 1518 1522 1527 1532 1537 1541 1545 1548 1551 1553 1555 1556 1557 1559 1560 1561 1562 1562 1563 1563 1563 1562 1562 1561
1496 1493 1492 1494 1498 1499 1502 1512 1524 1527 1528 1523 1505 1509 1505 1493 1493 1498 1504 1509 1514 1519 1524 1530 1534 1539 1543 1546 1549 1552 1554 1555 1557 1559 1560 1561 1562 1563 1563 1563 1563 1563 1563 1562
1502 1502 1493 1493 1496 1500 1501 1506 1522 1530 1525 1515 1503 1505 1493 1484 1487 1493 1498 1504 1511 1516 1522 1527 1532 1537 1541 1544 1547 1550 1552 1555 1556 1558 1560 1561 1562 1563 1563 1564 1564 1564 1564 1563
1498 1498 1488 1489 1491 1495 1500 1503 1501 1513 1514 1519 1508 1494 1487 1482 1485 1490 1495 1501 1507 1513 1519 1524 1530 1534 1538 1542 1545 1548 1551 1553 1555 1557 1559 1560 1562 1563 1563 1564 1564 1564 1564 1564
1489 1497 1489 1488 1491 1492 1494 1497 1504 1513 1521 1521 1509 1499 1494 1486 1485 1487 1492 1497 1503 1510 1516 1522 1527 1532 1536 1540 1543 1547 1549 1552 1554 1556 1558 1560 1561 1562 1563 1564 1564 1565 1565 1565
1485 1496 1495 1491 1493 1495 1496 1498 1499 1503 1505 1516 1518 1505 1477 1478 1480 1484 1489 1495 1501 1507 1513 1519 1524 1530 1534 1538 1541 1545 1548 1550 1553 1555 1557 1559 1560 1561 1563 1563 1564 1565 1565 1566
1481 1490 1497 1491 1485 1484 1488 1491 1496 1509 1507 1502 1510 1506 1476 1474 1477 1482 1487 1493 1499 1505 1511 1517 1522 1527 1531 1535 1539 1542 1545 1548 1551 1554 1556 1558 1559 1561 1562 1563 1564 1565 1565 1566
1479 1488 1503 1502 1497 1489 1488 1487 1489 1494 1499 1504 1509 1505 1478 1474 1477 1481 1486 1492 1497 1503 1509 1515 1520 1525 1529 1532 1536 1540 1543 1546 1549 1552 1554 1557 1558 1560 1561 1562 1563 1564 1565 1566
1479 1485 1496 1503 1496 1488 1489 1486 1485 1491 1501 1502 1497 1493 1481 1477 1478 1481 1485 1490 1495 1501 1507 1512 1517 1522 1526 1530 1534 1537 1541 1544 1547 1550 1553 1555 1557 1558 1560 1561 1563 1564 1565 1566
1477 1484 1484 1482 1480 1482 1483 1483 1483 1486 1488 1495 1491 1488 1479 1476 1476 1480 1484 1489 1494 1499 1504 1509 1514 1519 1523 1527 1531 1535 1538 1542 1545 1548 1551 1553 1555 1557 1559 1560 1561 1563 1564 1565
1474 1479 1481 1480 1475 1477 1479 1477 1478 1480 1480 1483 1485 1483 1474 1473 1475 1478 1482 1486 1491 1496 1501 1506 1511 1515 1519 1524 1528 1532 1535 1539 1542 1546 1548 1551 1553 1555 1557 1558 1560 1561 1562 1563
1471 1477 1482 1484 1474 1476 1481 1471 1471 1473 1473 1476 1480 1477 1472 1472 1472 1475 1479 1483 1488 1492 1498 1502 1507 1511 1516 1520 1524 1528 1532 1536 1540 1543 1546 1549 1551 1553 1555 1557 1558 1559 1561 1562
1467 1472 1479 1482 1482 1491 1470 1457 1459 1463 1466 1467 1468 1468 1469 1469 1471 1473 1476 1480 1484 1489 1494 1498 1503 1508 1513 1517 1522 1526 1530 1534 1537 1541 1543 1546 1549 1551 1553 1555 1556 1558 1559 1560
1462 1469 1477 1481 1487 1478 1463 1453 1454 1459 1462 1460 1462 1463 1465 1467 1469 1471 1474 1477 1480 1485 1489 1494 1499 1504 1509 1514 1518 1523 1527 1531 1535 1537 1540 1543 1546 1548 1550 1552 1554 1556 1557 1558
1460 1463 1473 1477 1485 1485 1464 1450 1449 1456 1463 1455 1457 1459 1461 1464 1470 1470 1470 1473 1477 1481 1486 1491 1496 1501 1506 1510 1515 1520 1523 1527 1531 1534 1537 1541 1543 1546 1548 1550 1552 1554 1555 1557
1464 1466 1471 1475 1478 1470 1455 1451 1452 1467 1464 1452 1453 1456 1458 1460 1464 1466 1468 1471 1474 1478 1483 1488 1493 1498 1502 1507 1512 1516 1520 1524 1528 1532 1535 1538 1541 1543 1546 1548 1550 1552 1553 1555
1457 1463 1465 1467 1475 1471 1451 1451 1454 1457 1452 1452 1453 1454 1457 1459 1462 1464 1466 1469 1472 1476 1480 1485 1490 1495 1500 1504 1509 1513 1517 1521 1525 1529 1532 1535 1538 1541 1543 1545 1547 1549 1551 1552
1446 1449 1451 1455 1459 1452 1450 1451 1452 1453 1453 1453 1454 1455 1457 1459 1461 1463 1465 1468 1472 1475 1479 1484 1488 1493 1498 1502 1506 1511 1514 1518 1522 1526 1529 1532 1536 1538 1541 1543 1545 1547 1548 1550
1440 1440 1445 1448 1448 1448 1449 1451 1451 1453 1454 1454 1455 1456 1457 1459 1461 1463 1466 1468 1471 1474 1478 1482 1487 1491 1495 1500 1504 1508 1512 1516 1519 1523 1526 1530 1533 1535 1538 1540 1542 1544 1546 1547
1441 1440 1443 1446 1447 1447 1449 1450 1451 1452 1453 1454 1455 1456 1457 1459 1461 1463 1466 1468 1471 1474 1478 1481 1485 1489 1493 1497 1502 1506 1509 1513 1516 1520 1524 1527 1530 1533 1535 1537 1539 1541 1543 1545
1440 1442 1446 1448 1446 1447 1449 1450 1451 1452 1453 1454 1455 1456 1457 1459 1461 1463 1466 1468 1470 1473 1477 1480 1484 1487 1491 1495 1499 1503 1506 1510 1513 1517 1520 1523 1526 1529 1532 1534 1537 1538 1540 1542